GW2489 Weather Reports


time (UTC)temp
F
wind
direction
speed
knots
gust
knots
rain 1hr
in
rain 24hr
in
rain mn
in
humidity
%
barometer
mb
20260506034037 32 0 0.0 0.0 0.00 0.28 0.21 93 1015.9
20260506033536 32 0 0.0 0.0 0.00 0.28 0.21 93 1015.8
20260506033043 31 0 0.0 0.0 0.00 0.28 0.21 93 1015.7
20260506032538 31 0 0.0 0.0 0.00 0.28 0.21 93 1015.6
20260506032038 31 0 0.0 0.0 0.00 0.28 0.21 93 1015.7
20260506031549 31 0 0.0 0.0 0.00 0.28 0.21 93 1015.6
20260506031038 31 0 0.0 0.0 0.00 0.28 0.21 93 1015.4
20260506030540 32 0 0.0 0.0 0.00 0.28 0.21 93 1015.3
20260506030050 32 0 0.0 0.0 0.00 0.28 0.21 93 1015.2
20260506025536 32 0 0.0 0.0 0.00 0.33 0.21 94 1015.1
20260506025037 32 0 0.0 0.0 0.00 0.33 0.21 94 1015.1
20260506024550 32 0 0.0 0.0 0.00 0.33 0.21 94 1015.0
20260506024036 32 0 0.0 0.0 0.00 0.33 0.21 93 1015.0
20260506023535 32 0 0.0 0.0 0.00 0.33 0.21 93 1014.8
20260506023054 32 0 0.0 0.0 0.00 0.33 0.21 93 1014.6
20260506022534 32 0 0.0 0.0 0.01 0.33 0.21 93 1014.7
20260506022036 32 0 0.0 0.0 0.01 0.33 0.21 93 1014.5
20260506021550 32 0 0.0 0.0 0.01 0.33 0.21 93 1014.5
20260506021039 32 0 0.0 0.0 0.01 0.33 0.21 93 1014.2
20260506020537 32 0 0.0 0.0 0.01 0.33 0.21 93 1014.3
20260506020116 32 0 0.0 0.0 0.01 0.33 0.21 93 1014.3
20260506015540 32 0 0.0 0.9 0.01 0.33 0.21 93 1014.2
20260506015038 32 0 0.0 1.7 0.01 0.33 0.21 93 1014.1
20260506014549 32 0 0.0 1.7 0.01 0.33 0.21 93 1014.1
20260506014037 32 349 0.0 1.7 0.01 0.33 0.21 93 1014.1
20260506013536 32 0 0.0 1.7 0.01 0.33 0.21 93 1013.9
20260506013045 32 333 0.0 1.7 0.01 0.33 0.21 93 1013.9
20260506012537 32 0 0.0 1.7 0.00 0.32 0.20 93 1014.1
20260506012041 32 0 0.0 1.7 0.00 0.32 0.20 93 1014.0
20260506011548 32 0 0.0 1.7 0.00 0.32 0.20 93 1013.9
20260506011037 32 0 0.0 1.7 0.00 0.32 0.20 93 1013.7
20260506010534 32 0 0.0 1.7 0.00 0.32 0.20 93 1013.7
20260506010046 32 0 0.0 1.7 0.00 0.32 0.20 93 1013.6
20260506005537 32 350 0.0 2.6 0.00 0.32 0.20 93 1013.5
20260506005035 32 0 0.0 2.6 0.00 0.32 0.20 93 1013.6
20260506004547 32 0 0.0 2.6 0.00 0.32 0.20 93 1013.6
20260506004037 32 349 0.0 1.7 0.00 0.32 0.20 93 1013.5
20260506003537 32 0 0.0 1.7 0.00 0.32 0.20 93 1013.5
20260506003048 32 0 0.0 2.6 0.00 0.32 0.20 93 1013.6
20260506002537 32 0 0.0 2.6 0.00 0.32 0.20 93 1013.5
20260506002037 32 0 0.9 2.6 0.00 0.32 0.20 93 1013.6
20260506001559 32 0 0.0 2.6 0.00 0.32 0.20 93 1013.5
20260506001038 32 341 0.0 2.6 0.00 0.32 0.20 93 1013.5
20260506000538 32 0 0.0 2.6 0.00 0.32 0.20 93 1013.5
20260506000056 32 337 0.0 2.6 0.00 0.32 0.20 93 1013.4
20260505235538 32 332 0.0 2.6 0.00 0.32 0.20 93 1013.3
20260505235037 32 0 0.0 2.6 0.00 0.32 0.20 93 1013.3
20260505234549 32 0 0.0 1.7 0.00 0.32 0.20 93 1013.2
20260505234034 32 0 0.0 1.7 0.00 0.32 0.20 93 1013.3
20260505233536 32 0 0.0 1.7 0.00 0.32 0.20 93 1013.2
20260505233050 32 0 0.0 2.6 0.00 0.32 0.20 93 1013.2
20260505232539 32 0 0.0 2.6 0.00 0.32 0.20 93 1013.1
20260505232036 32 0 0.9 2.6 0.00 0.32 0.20 93 1013.1
20260505231551 32 352 0.0 2.6 0.00 0.32 0.20 93 1013.0
20260505231037 32 321 0.0 3.5 0.00 0.32 0.20 93 1012.9
20260505230537 32 12 0.0 3.5 0.00 0.32 0.20 92 1013.0
20260505230050 32 0 0.0 8.7 0.00 0.32 0.20 92 1013.1
20260505225538 32 360 0.0 8.7 0.00 0.32 0.20 92 1013.0
20260505225038 32 340 0.9 8.7 0.01 0.32 0.20 92 1013.2
20260505224550 32 0 1.7 7.8 0.01 0.32 0.20 92 1013.3
20260505224037 33 352 0.9 4.3 0.01 0.32 0.20 92 1012.9
20260505223537 33 12 0.9 3.5 0.01 0.32 0.20 92 1012.9
20260505223048 33 11 0.0 3.5 0.02 0.32 0.20 92 1012.7
20260505222537 33 0 0.0 3.5 0.02 0.32 0.20 92 1012.4
20260505222042 33 0 0.0 3.5 0.02 0.32 0.20 92 1012.3
20260505221551 34 352 0.0 3.5 0.03 0.32 0.20 92 1012.2
20260505221036 34 0 0.9 4.3 0.03 0.32 0.20 92 1012.7
20260505220534 34 321 0.0 4.3 0.03 0.32 0.20 92 1012.8
20260505215537 34 0 0.9 4.3 0.04 0.32 0.20 91 1012.6
20260505215035 34 0 0.9 4.3 0.03 0.31 0.19 91 1012.1
20260505214559 34 0 0.0 4.3 0.04 0.31 0.19 91 1012.0
20260505214037 35 31 0.0 2.6 0.04 0.31 0.19 91 1012.1
20260505213535 34 0 0.0 4.3 0.04 0.31 0.19 91 1012.1
20260505213048 34 336 0.9 9.6 0.03 0.30 0.18 90 1012.3
20260505212536 35 15 0.9 9.6 0.03 0.30 0.18 89 1012.2
20260505212035 37 5 0.0 7.8 0.03 0.30 0.18 91 1012.3
20260505211608 37 0 0.0 4.3 0.02 0.29 0.17 91 1012.4
20260505211038 37 0 0.0 3.5 0.03 0.29 0.17 91 1012.4
20260505210534 37 11 0.0 3.5 0.03 0.29 0.17 91 1012.3
20260505210047 37 0 0.0 1.7 0.03 0.29 0.17 91 1012.3
20260505205535 38 0 0.0 1.7 0.02 0.28 0.16 91 1012.2
20260505205036 38 0 0.0 2.6 0.02 0.28 0.16 91 1012.4
20260505204558 38 0 0.0 2.6 0.02 0.27 0.15 91 1012.5
20260505204036 38 0 0.0 2.6 0.02 0.27 0.15 92 1012.7
20260505203535 37 0 0.0 2.6 0.02 0.27 0.15 91 1012.7
20260505203042 37 0 0.0 3.5 0.02 0.27 0.15 91 1012.8
20260505202538 37 13 0.0 3.5 0.02 0.27 0.15 91 1013.0
20260505202038 37 352 0.0 2.6 0.02 0.27 0.15 91 1013.3
20260505201550 37 22 0.9 2.6 0.02 0.27 0.15 91 1013.1
20260505201037 37 0 0.0 3.5 0.02 0.26 0.14 91 1013.3
20260505200534 37 0 0.0 3.5 0.02 0.26 0.14 91 1013.3
20260505200048 37 0 0.0 2.6 0.02 0.26 0.14 90 1013.3
20260505195534 37 0 0.0 2.6 0.02 0.26 0.14 90 1013.3
20260505195036 37 0 0.0 1.7 0.02 0.26 0.14 90 1013.2
20260505194547 37 0 0.0 0.0 0.01 0.25 0.13 90 1013.3
20260505194035 38 0 0.0 0.0 0.01 0.25 0.13 90 1013.2
20260505193534 38 0 0.0 2.6 0.01 0.25 0.13 90 1013.3
20260505193045 38 0 0.0 2.6 0.01 0.25 0.13 90 1013.3
20260505192534 38 0 0.0 0.0 0.01 0.25 0.13 90 1013.3
20260505192034 38 0 0.0 0.0 0.01 0.25 0.13 90 1013.2
20260505191542 38 0 0.0 0.9 0.01 0.25 0.13 89 1013.1
20260505191034 38 0 0.0 0.9 0.00 0.24 0.12 89 1013.1
20260505190537 38 0 0.0 0.0 0.00 0.24 0.12 90 1013.2
20260505190048 38 0 0.0 0.0 0.00 0.24 0.12 89 1013.1
20260505185539 38 0 0.0 0.0 0.00 0.24 0.12 90 1013.1
20260505185035 38 0 0.0 0.0 0.00 0.24 0.12 90 1013.4
20260505184549 38 0 0.0 0.0 0.00 0.24 0.12 90 1013.3
20260505184037 38 0 0.0 0.0 0.00 0.24 0.12 90 1013.5
20260505183537 38 0 0.0 0.0 0.00 0.24 0.12 90 1013.8
20260505183045 38 0 0.0 0.0 0.00 0.24 0.12 90 1013.8
20260505182534 37 0 0.0 0.0 0.00 0.24 0.12 90 1013.8
20260505182036 37 0 0.0 0.0 0.00 0.24 0.12 90 1013.9
20260505181606 37 0 0.0 0.0 0.00 0.24 0.12 90 1013.8
20260505181055 37 0 0.0 0.0 0.00 0.24 0.12 90 1014.0
20260505180534 38 0 0.0 0.0 0.00 0.24 0.12 91 1014.0
20260505180059 38 0 0.0 0.0 0.00 0.24 0.12 91 1014.0
20260505175535 37 0 0.0 0.9 0.00 0.24 0.12 91 1014.0
20260505175036 37 0 0.0 1.7 0.00 0.24 0.12 91 1014.0
20260505174545 37 0 0.0 1.7 0.00 0.24 0.12 91 1014.1
20260505174034 37 0 0.0 2.6 0.00 0.24 0.12 91 1014.3
20260505173536 37 0 0.0 2.6 0.00 0.24 0.12 91 1014.3
20260505173041 37 0 0.0 0.9 0.00 0.24 0.12 90 1014.3
20260505172533 37 0 0.0 0.9 0.00 0.24 0.12 91 1014.4
20260505172034 36 0 0.0 0.0 0.00 0.24 0.12 91 1014.5
20260505171551 36 0 0.0 0.0 0.01 0.24 0.12 90 1014.5
20260505171038 37 0 0.0 0.9 0.01 0.24 0.12 91 1014.5
20260505170538 37 0 0.0 0.9 0.01 0.24 0.12 92 1014.6
20260505170044 37 0 0.0 0.9 0.01 0.24 0.12 92 1014.5
20260505165537 37 0 0.0 0.0 0.01 0.24 0.12 92 1014.5
20260505165034 37 0 0.0 0.0 0.01 0.24 0.12 92 1014.5
20260505164547 36 0 0.0 0.0 0.01 0.24 0.12 92 1014.5
20260505164033 36 0 0.0 0.0 0.01 0.24 0.12 92 1014.5
20260505163537 36 0 0.0 0.0 0.01 0.24 0.12 92 1014.5
20260505163046 36 0 0.0 0.0 0.01 0.24 0.12 92 1014.6
20260505162538 36 0 0.0 0.9 0.01 0.24 0.12 92 1014.7
20260505162034 36 0 0.0 0.9 0.01 0.24 0.12 92 1014.7
20260505161541 36 0 0.0 0.9 0.00 0.23 0.11 92 1014.7
20260505161034 36 0 0.0 1.7 0.00 0.23 0.11 93 1014.7
20260505160535 36 0 0.0 2.6 0.00 0.23 0.11 93 1014.7
20260505153047 35 0 0.0 0.0 0.00 0.23 0.11 93 1015.0
20260505152537 35 0 0.0 0.0 0.00 0.23 0.11 93 1014.9
20260505152038 35 0 0.0 0.0 0.00 0.23 0.11 93 1015.0
20260505151545 35 0 0.0 1.7 0.00 0.23 0.11 93 1015.1
20260505151034 35 0 0.0 1.7 0.00 0.23 0.11 93 1015.0
20260505150537 35 0 0.0 0.9 0.01 0.23 0.11 93 1015.0
20260505140537 33 0 0.0 1.7 0.02 0.22 0.10 93 1015.1
20260505125037 33 0 0.0 2.6 0.02 0.20 0.08 92 1014.3
20260505124550 33 0 0.0 3.5 0.02 0.20 0.08 92 1014.1
20260505124040 33 0 0.0 3.5 0.02 0.20 0.08 92 1014.1
20260505123538 33 0 0.0 2.6 0.03 0.20 0.08 92 1014.1
20260505123055 33 341 0.0 1.7 0.03 0.20 0.08 92 1013.9
20260505122538 34 0 0.0 2.6 0.02 0.19 0.07 92 1014.0
20260505122038 34 0 0.0 2.6 0.03 0.19 0.07 92 1014.0
20260505121550 34 329 0.0 2.6 0.03 0.19 0.07 92 1014.1
20260505121038 34 0 0.0 3.5 0.03 0.19 0.07 91 1014.0
20260505120539 34 0 0.0 3.5 0.02 0.18 0.06 91 1013.8
20260505120110 34 24 0.0 3.5 0.03 0.18 0.06 91 1013.9
20260505115537 34 0 0.0 1.7 0.03 0.18 0.06 91 1013.7
20260505115036 35 0 0.0 2.6 0.03 0.18 0.06 91 1013.9
20260505114548 35 0 0.0 2.6 0.03 0.18 0.06 91 1013.7
20260505114041 35 0 0.0 2.6 0.03 0.18 0.06 91 1013.8
20260505113542 35 0 0.0 1.7 0.02 0.17 0.05 91 1013.9
20260505113050 35 0 0.0 2.6 0.02 0.17 0.05 90 1013.9
20260505112537 36 0 0.0 2.6 0.02 0.17 0.05 90 1013.7
20260505112037 36 5 0.9 7.8 0.02 0.16 0.04 90 1013.7
20260505111547 36 360 0.9 7.8 0.02 0.16 0.04 90 1013.6
20260505111038 36 360 0.9 7.8 0.02 0.16 0.04 89 1013.6
20260505110538 37 5 0.9 7.8 0.01 0.15 0.03 89 1013.6
20260505110107 38 32 1.7 7.0 0.02 0.15 0.03 89 1013.5
20260505102036 39 0 0.9 8.7 0.02 0.14 0.02 90 1012.5
20260505101547 39 0 0.9 7.0 0.02 0.14 0.02 90 1012.5
20260505101034 39 41 0.0 5.2 0.02 0.14 0.02 90 1012.6
20260505100534 39 10 0.0 7.0 0.02 0.14 0.02 90 1012.5
20260505100043 39 5 0.0 7.0 0.01 0.13 0.01 90 1012.5
20260505095534 39 259 0.0 4.3 0.01 0.13 0.01 90 1012.2
20260505095035 40 5 0.0 4.3 0.01 0.13 0.01 91 1012.3
20260505094543 40 360 0.9 4.3 0.01 0.13 0.01 91 1012.3
20260505094034 40 17 0.0 4.3 0.01 0.13 0.01 91 1012.2
20260505093534 40 13 0.0 6.1 0.01 0.13 0.01 91 1012.1
20260505093042 40 0 0.0 6.1 0.00 0.12 0.00 90 1012.2
20260505092534 41 352 0.9 5.2 0.00 0.12 0.00 91 1012.2
20260505092035 41 352 0.9 7.0 0.00 0.12 0.00 91 1012.2
20260505091554 41 5 0.9 8.7 0.00 0.12 0.00 90 1012.1
20260505091040 41 338 0.0 9.6 0.00 0.12 0.00 90 1011.9
20260505090533 41 5 1.7 15.6 0.00 0.12 0.00 90 1011.9
20260505090041 41 336 2.6 15.6 0.00 0.12 0.00 90 1011.8
20260505085534 41 0 0.0 8.7 0.00 0.12 0.00 90 1011.8
20260505085037 41 338 1.7 8.7 0.00 0.12 0.00 90 1012.0
20260505084556 41 0 0.9 4.3 0.00 0.12 0.00 90 1012.0
20260505084035 41 0 0.0 5.2 0.00 0.12 0.00 89 1011.9
20260505083538 42 0 0.0 5.2 0.00 0.12 0.00 89 1011.9
20260505083055 42 338 0.0 4.3 0.00 0.12 0.00 88 1012.0
20260505082534 42 346 0.0 3.5 0.00 0.12 0.00 88 1012.0
20260505082037 42 0 0.9 5.2 0.00 0.12 0.00 88 1012.0
20260505081542 42 0 0.9 5.2 0.00 0.12 0.00 87 1012.2
20260505081035 43 351 0.9 5.2 0.00 0.12 0.00 87 1012.3
20260505080533 44 341 0.0 5.2 0.00 0.12 0.00 86 1012.2
20260505080041 45 0 0.9 5.2 0.00 0.12 0.00 86 1012.2
20260505075538 46 0 0.0 4.3 0.00 0.12 0.00 87 1011.9
20260505075036 46 327 0.0 4.3 0.00 0.12 0.00 87 1012.0
20260505074540 46 0 0.0 0.9 0.00 0.12 0.00 87 1012.1
20260505074036 46 252 0.0 0.0 0.00 0.12 0.00 87 1012.1
20260505073537 46 0 0.0 0.0 0.00 0.12 0.00 87 1012.1
20260505073049 46 0 0.0 0.0 0.00 0.12 0.00 87 1012.1
20260505072539 46 0 0.0 0.0 0.00 0.12 0.00 87 1011.9
20260505072038 46 0 0.0 0.0 0.00 0.12 0.00 88 1011.8
20260505071542 46 0 0.0 0.0 0.00 0.12 0.00 88 1011.8
20260505071038 46 0 0.0 0.9 0.00 0.12 0.00 88 1012.0
20260505070538 46 0 0.0 1.7 0.00 0.12 0.00 88 1011.9
20260505070050 46 0 0.0 1.7 0.00 0.12 0.00 88 1011.8
20260505065538 46 0 0.0 0.0 0.00 0.12 0.00 88 1011.8
20260505065036 46 0 0.0 1.7 0.00 0.12 0.00 88 1011.7
20260505064603 45 0 0.0 1.7 0.00 0.12 0.00 88 1011.9
20260505064037 45 0 0.0 1.7 0.00 0.12 0.00 88 1011.9
20260505063535 46 0 0.0 0.0 0.00 0.12 0.00 88 1011.9
20260505063048 46 0 0.0 0.0 0.00 0.12 0.00 88 1011.9
20260505062537 46 0 0.0 0.9 0.00 0.12 0.00 88 1011.9
20260505062038 46 0 0.0 0.9 0.00 0.12 0.00 88 1011.8
20260505061539 45 0 0.0 0.0 0.00 0.12 0.00 89 1011.9
20260505061041 45 0 0.0 0.0 0.00 0.12 0.00 89 1011.8
20260505060537 45 0 0.0 0.9 0.00 0.12 0.00 89 1011.9
20260505060038 45 0 0.0 0.9 0.00 0.12 0.00 89 1011.7
20260505055540 45 0 0.0 0.9 0.00 0.12 0.12 89 1011.8
20260505055038 45 0 0.0 0.0 0.00 0.12 0.12 88 1011.9
20260505054550 45 0 0.0 0.0 0.00 0.12 0.12 88 1012.0
20260505054037 44 0 0.0 0.0 0.00 0.12 0.12 88 1012.0
20260505053538 44 0 0.0 0.0 0.00 0.12 0.12 88 1011.5
20260505053043 44 0 0.0 0.0 0.00 0.12 0.12 87 1011.5
20260505052541 44 0 0.0 0.0 0.00 0.12 0.12 88 1011.5
20260505052037 44 0 0.0 0.0 0.00 0.12 0.12 87 1011.5
20260505051549 44 0 0.0 0.0 0.00 0.12 0.12 87 1011.5
20260505051036 44 0 0.0 0.0 0.00 0.12 0.12 87 1011.6
20260505050536 44 0 0.0 0.0 0.01 0.12 0.12 87 1011.7
20260505041542 46 0 0.0 0.0 0.05 0.12 0.12 86 1012.1
20260505041038 46 0 0.0 0.0 0.05 0.12 0.12 86 1012.2
20260505040541 46 0 0.0 0.0 0.05 0.11 0.11 86 1012.3
20260505040059 46 0 0.0 0.0 0.06 0.11 0.11 86 1012.1
20260505035537 46 0 0.0 0.0 0.08 0.11 0.11 86 1012.1
20260505035036 46 0 0.0 0.0 0.10 0.11 0.11 85 1011.9
20260505034605 46 0 0.0 0.9 0.11 0.11 0.11 84 1012.1